Volver al catálogo

HAINAN-1 02

ActivoCienciaSSO
NORAD 51832·PAYLOAD·🇨🇳 China
Este nombre de satélite aún no ha sido confirmado por fuentes oficiales.

Lanzado Feb 27, 2022 desde Wenchang Space Launch Site

Loading…

Próximos Pases (próximas 24 horas)

TLE

ActualizadoSource: Space-Track

Época: Sep 14, 2026, 15:15 UTC

1 51832U 22019J   26257.63579147  .00001851  00000-0  87102-4 0  9994
2 51832  97.3347 318.1126 0006909 279.0843  80.9611 15.20761221251395

Sigue HAINAN-1 02 en tiempo real con AllMySat

Download on the App Store